�������l�o���
Date,Time,MP-1(��Sv/h),MP-2(��Sv/h),MP-3(��Sv/h),MP-4(��Sv/h),MP-5(��Sv/h),MP-6(��Sv/h),MP-7(��Sv/h),MP-8(��Sv/h),����,����(m/s),���J
2024/01/17,00:00,0.518,0.787,0.490,0.995,0.710,0.313,0.563,0.525,�k��,2.8,��
2024/01/17,00:10,0.517,0.786,0.489,0.995,0.707,0.314,0.563,0.527,�k��,4.3,��
2024/01/17,00:20,0.517,0.786,0.491,0.994,0.705,0.314,0.564,0.526,���k��,3.2,��
2024/01/17,00:30,0.516,0.784,0.489,0.996,0.709,0.314,0.564,0.526,�k��,5.6,��
2024/01/17,00:40,0.516,0.787,0.490,0.998,0.706,0.313,0.564,0.527,���k��,6.2,��
2024/01/17,00:50,0.519,0.787,0.490,0.998,0.708,0.313,0.563,0.525,�k��,5.5,��
2024/01/17,01:00,0.517,0.787,0.488,0.996,0.706,0.313,0.562,0.526,�k��,5.7,��
2024/01/17,01:10,0.517,0.787,0.489,0.997,0.706,0.313,0.563,0.525,�k��,4.6,��
2024/01/17,01:20,0.515,0.785,0.489,0.997,0.707,0.314,0.563,0.527,�k��,3.7,��
2024/01/17,01:30,0.519,0.784,0.489,0.995,0.707,0.313,0.562,0.526,���k��,2.9,��
2024/01/17,01:40,0.517,0.786,0.489,0.995,0.708,0.313,0.562,0.527,���쐼,1.7,��
2024/01/17,01:50,0.516,0.787,0.489,0.994,0.708,0.314,0.563,0.525,��,2.6,��
2024/01/17,02:00,0.517,0.785,0.489,0.994,0.706,0.314,0.564,0.526,��쐼,2.3,��
2024/01/17,02:10,0.518,0.785,0.489,0.996,0.707,0.313,0.562,0.525,��쐼,2.5,��
2024/01/17,02:20,0.516,0.785,0.490,0.996,0.707,0.313,0.563,0.526,��,4.2,��
2024/01/17,02:30,0.517,0.784,0.489,0.996,0.707,0.313,0.561,0.524,��,3.5,��
2024/01/17,02:40,0.518,0.786,0.487,0.996,0.708,0.314,0.562,0.526,��쐼,3.7,��
2024/01/17,02:50,0.517,0.786,0.490,0.997,0.706,0.313,0.562,0.526,�쐼,2.6,��
2024/01/17,03:00,0.517,0.785,0.488,0.996,0.707,0.313,0.562,0.526,�쐼,2.6,��
2024/01/17,03:10,0.516,0.784,0.490,0.994,0.707,0.312,0.563,0.524,�쐼,2.3,��
2024/01/17,03:20,0.516,0.785,0.487,0.996,0.706,0.313,0.562,0.526,��쐼,1.2,��
2024/01/17,03:30,0.518,0.786,0.491,0.994,0.707,0.313,0.560,0.525,��,1.7,��
2024/01/17,03:40,0.518,0.786,0.489,0.998,0.707,0.314,0.562,0.526,��,2.3,��
2024/01/17,03:50,0.516,0.785,0.490,0.995,0.708,0.314,0.560,0.524,��쐼,2.3,��
2024/01/17,04:00,0.518,0.785,0.489,0.996,0.708,0.314,0.562,0.526,��쐼,2.3,��
2024/01/17,04:10,0.518,0.786,0.490,0.994,0.706,0.314,0.560,0.525,��,2.3,��
2024/01/17,04:20,0.516,0.785,0.488,0.996,0.708,0.313,0.560,0.524,���쐼,1.7,��
2024/01/17,04:30,0.518,0.784,0.489,0.997,0.708,0.313,0.562,0.525,���쐼,2.2,��
2024/01/17,04:40,0.517,0.783,0.489,0.996,0.708,0.314,0.562,0.525,���쐼,2.5,��
2024/01/17,04:50,0.518,0.783,0.488,0.997,0.707,0.312,0.564,0.525,��,2.6,��
2024/01/17,05:00,0.517,0.782,0.489,0.994,0.707,0.314,0.561,0.525,�쐼,1.5,��
2024/01/17,05:10,0.517,0.785,0.489,0.994,0.706,0.314,0.561,0.525,���쐼,1.4,��
2024/01/17,05:20,0.518,0.785,0.487,0.997,0.706,0.313,0.562,0.524,�쐼,1.2,��
2024/01/17,05:30,0.516,0.785,0.488,0.995,0.708,0.312,0.562,0.525,���쐼,2.8,��
2024/01/17,05:40,0.516,0.786,0.490,0.995,0.705,0.312,0.563,0.523,��,4.6,��
2024/01/17,05:50,0.516,0.785,0.487,0.995,0.705,0.313,0.560,0.526,��,5.2,��
2024/01/17,06:00,0.516,0.784,0.488,0.994,0.706,0.313,0.561,0.524,��,4.6,��
2024/01/17,06:10,0.516,0.785,0.488,0.995,0.705,0.314,0.564,0.525,��,3.2,��
2024/01/17,06:20,0.517,0.784,0.488,0.995,0.705,0.314,0.561,0.526,��,4.7,��
2024/01/17,06:30,0.517,0.783,0.489,0.996,0.705,0.314,0.561,0.524,���쐼,6.0,��
2024/01/17,06:40,0.516,0.783,0.488,0.996,0.707,0.314,0.562,0.525,���쐼,6.4,��
2024/01/17,06:50,0.517,0.784,0.489,0.995,0.704,0.312,0.562,0.525,���쐼,7.5,��
2024/01/17,07:00,0.517,0.785,0.487,0.995,0.705,0.314,0.563,0.525,���쐼,8.3,��
2024/01/17,07:10,0.517,0.782,0.488,0.994,0.707,0.313,0.563,0.526,���쐼,7.4,��
2024/01/17,07:20,0.519,0.784,0.489,0.995,0.704,0.313,0.562,0.525,���쐼,6.6,��
2024/01/17,07:30,0.516,0.784,0.488,0.996,0.707,0.312,0.563,0.525,���쐼,6.4,��
2024/01/17,07:40,0.518,0.782,0.489,0.995,0.706,0.312,0.563,0.524,��,5.5,��
2024/01/17,07:50,0.517,0.784,0.490,0.998,0.704,0.312,0.561,0.525,���쐼,5.8,��
2024/01/17,08:00,0.518,0.784,0.487,0.995,0.709,0.312,0.564,0.523,��,6.8,��
2024/01/17,08:10,0.517,0.785,0.489,0.996,0.707,0.313,0.563,0.525,��,5.9,��
2024/01/17,08:20,0.520,0.784,0.488,0.996,0.705,0.313,0.563,0.524,���쐼,6.6,��
2024/01/17,08:30,0.516,0.780,0.489,0.997,0.707,0.314,0.562,0.525,���쐼,6.4,��
2024/01/17,08:40,0.517,0.786,0.489,0.996,0.707,0.313,0.561,0.525,��,7.8,��
2024/01/17,08:50,0.519,0.785,0.488,0.996,0.706,0.314,0.563,0.525,���쐼,6.1,��
2024/01/17,09:00,0.518,0.786,0.489,0.996,0.706,0.313,0.563,0.526,���쐼,6.8,��
2024/01/17,09:10,0.518,0.786,0.487,0.998,0.706,0.313,0.562,0.525,��,6.5,��
2024/01/17,09:20,0.519,0.786,0.490,0.994,0.706,0.313,0.562,0.525,��,6.7,��
2024/01/17,09:30,0.519,0.785,0.488,0.994,0.705,0.313,0.564,0.525,���쐼,5.9,��
2024/01/17,09:40,0.518,0.786,0.490,0.997,0.705,0.313,0.564,0.526,��,5.5,��
2024/01/17,09:50,0.518,0.787,0.490,0.998,0.706,0.314,0.562,0.525,��,4.4,��
2024/01/17,10:00,0.518,0.783,0.490,0.997,0.706,0.313,0.563,0.525,���쐼,5.9,��
2024/01/17,10:10,0.517,0.786,0.490,0.998,0.708,0.315,0.562,0.527,��,7.4,��
2024/01/17,10:20,0.517,0.782,0.489,1.000,0.706,0.314,0.563,0.526,���쐼,6.3,��
2024/01/17,10:30,0.519,0.785,0.490,0.997,0.706,0.314,0.564,0.526,���쐼,6.4,��
2024/01/17,10:40,0.518,0.784,0.490,0.996,0.706,0.313,0.562,0.526,��,6.4,��
2024/01/17,10:50,0.519,0.783,0.491,0.996,0.709,0.314,0.561,0.528,��,7.3,��
2024/01/17,11:00,0.519,0.786,0.491,0.996,0.709,0.313,0.561,0.526,��,6.7,��
2024/01/17,11:10,0.518,0.784,0.491,0.997,0.706,0.314,0.562,0.526,��,6.1,��
2024/01/17,11:20,0.519,0.784,0.491,0.999,0.708,0.314,0.564,0.527,��,5.3,��
2024/01/17,11:30,0.518,0.784,0.491,0.997,0.709,0.314,0.564,0.527,��,5.2,��
2024/01/17,11:40,0.519,0.783,0.491,0.996,0.708,0.315,0.561,0.527,��,5.4,��
2024/01/17,11:50,0.518,0.785,0.491,0.997,0.709,0.314,0.563,0.527,���쐼,5.0,��
2024/01/17,12:00,0.518,0.784,0.493,0.998,0.707,0.314,0.564,0.527,��,5.9,��
2024/01/17,12:10,0.519,0.784,0.493,0.999,0.709,0.314,0.564,0.529,��,4.8,��
2024/01/17,12:20,0.516,0.784,0.491,0.997,0.707,0.315,0.563,0.528,��,4.1,��
2024/01/17,12:30,0.518,0.784,0.493,1.000,0.708,0.315,0.564,0.528,��,2.8,��
2024/01/17,12:40,0.519,0.782,0.493,0.998,0.707,0.315,0.565,0.528,��,3.5,��
2024/01/17,12:50,0.518,0.783,0.493,0.998,0.709,0.316,0.566,0.528,���k��,4.0,��
2024/01/17,13:00,0.518,0.786,0.491,0.999,0.708,0.314,0.564,0.527,��,3.6,��
2024/01/17,13:10,0.518,0.784,0.491,0.999,0.707,0.316,0.566,0.527,���k��,1.5,��
2024/01/17,13:20,0.517,0.784,0.491,0.998,0.705,0.315,0.566,0.525,�쐼,3.8,��
2024/01/17,13:30,0.514,0.785,0.492,1.000,0.708,0.316,0.565,0.526,��,3.7,��
2024/01/17,13:40,0.512,0.785,0.490,0.999,0.709,0.316,0.566,0.526,�쐼,3.4,��
2024/01/17,13:50,0.513,0.783,0.491,1.000,0.709,0.316,0.566,0.526,���쐼,2.8,��
2024/01/17,14:00,0.513,0.785,0.491,1.000,0.710,0.315,0.566,0.525,�쐼,3.8,��
2024/01/17,14:10,0.514,0.786,0.490,1.001,0.710,0.317,0.565,0.525,�쐼,4.7,��
2024/01/17,14:20,0.512,0.785,0.489,0.999,0.711,0.316,0.566,0.526,���쐼,4.8,��
2024/01/17,14:30,0.510,0.784,0.491,0.998,0.711,0.315,0.565,0.526,�쐼,4.0,��
2024/01/17,14:40,0.509,0.785,0.490,0.998,0.710,0.314,0.567,0.525,�쐼,4.6,��
2024/01/17,14:50,0.509,0.785,0.491,1.000,0.711,0.315,0.566,0.526,�쐼,5.2,��
2024/01/17,15:00,0.510,0.783,0.491,1.001,0.712,0.315,0.565,0.527,�쐼,5.4,��
2024/01/17,15:10,0.514,0.784,0.492,1.000,0.709,0.315,0.566,0.524,��,4.3,��
2024/01/17,15:20,0.514,0.787,0.492,0.999,0.711,0.315,0.566,0.527,��,2.5,��
2024/01/17,15:30,0.514,0.784,0.492,1.000,0.712,0.316,0.567,0.527,���쐼,3.2,��
2024/01/17,15:40,0.516,0.789,0.491,0.998,0.709,0.315,0.565,0.528,���쐼,1.2,��
2024/01/17,15:50,0.514,0.786,0.491,1.000,0.708,0.316,0.565,0.527,��쓌,1.1,��
2024/01/17,16:00,0.516,0.787,0.492,0.999,0.710,0.316,0.566,0.528,��쓌,2.3,��
2024/01/17,16:10,0.518,0.787,0.492,0.999,0.710,0.315,0.566,0.529,���쓌,1.2,��
2024/01/17,16:20,0.518,0.786,0.491,0.997,0.709,0.315,0.566,0.527,�쓌,1.5,��
2024/01/17,16:30,0.519,0.789,0.493,0.998,0.707,0.314,0.566,0.527,��쓌,2.3,��
2024/01/17,16:40,0.519,0.786,0.493,0.999,0.708,0.316,0.565,0.527,��쓌,2.3,��
2024/01/17,16:50,0.518,0.788,0.491,0.999,0.710,0.315,0.565,0.528,��,3.0,��
2024/01/17,17:00,0.520,0.787,0.491,0.998,0.710,0.316,0.565,0.526,��,3.1,��
2024/01/17,17:10,0.519,0.789,0.492,0.998,0.710,0.315,0.564,0.527,��쓌,3.1,��
2024/01/17,17:20,0.519,0.787,0.492,0.998,0.709,0.316,0.564,0.526,��,3.1,��
2024/01/17,17:30,0.519,0.786,0.491,0.997,0.712,0.315,0.565,0.527,��쐼,3.4,��
2024/01/17,17:40,0.520,0.789,0.490,0.999,0.711,0.315,0.564,0.524,��쐼,3.4,��
2024/01/17,17:50,0.519,0.787,0.492,0.998,0.710,0.315,0.564,0.528,��쐼,3.3,��
2024/01/17,18:00,0.520,0.787,0.489,0.999,0.710,0.316,0.563,0.526,�쐼,3.0,��
2024/01/17,18:10,0.519,0.785,0.492,0.998,0.710,0.316,0.564,0.527,�쐼,2.6,��
2024/01/17,18:20,0.519,0.785,0.491,1.000,0.710,0.315,0.562,0.527,�쐼,4.0,��
2024/01/17,18:30,0.518,0.788,0.493,1.000,0.710,0.316,0.564,0.526,�쐼,5.2,��
2024/01/17,18:40,0.521,0.789,0.491,0.998,0.709,0.315,0.563,0.526,�쐼,5.5,��
2024/01/17,18:50,0.519,0.786,0.491,1.000,0.712,0.315,0.565,0.525,�쐼,4.7,��
2024/01/17,19:00,0.518,0.787,0.492,0.998,0.711,0.315,0.562,0.528,���쐼,5.3,��
2024/01/17,19:10,0.521,0.785,0.491,0.999,0.709,0.315,0.563,0.526,���쐼,6.3,��
2024/01/17,19:20,0.519,0.787,0.492,1.000,0.711,0.314,0.563,0.526,���쐼,5.8,��
2024/01/17,19:30,0.519,0.787,0.490,0.999,0.711,0.314,0.562,0.526,���쐼,6.4,��
2024/01/17,19:40,0.521,0.787,0.490,0.999,0.710,0.317,0.562,0.527,�쐼,5.6,��
2024/01/17,19:50,0.519,0.787,0.492,1.001,0.710,0.315,0.562,0.528,�쐼,5.7,��
2024/01/17,20:00,0.519,0.788,0.492,0.999,0.708,0.313,0.563,0.526,�쐼,5.3,��
2024/01/17,20:10,0.519,0.787,0.491,0.997,0.711,0.315,0.563,0.527,���쐼,5.7,��
2024/01/17,20:20,0.519,0.787,0.490,0.998,0.709,0.315,0.562,0.527,���쐼,6.9,��
2024/01/17,20:30,0.518,0.787,0.490,0.999,0.710,0.315,0.563,0.526,���쐼,7.2,��
2024/01/17,20:40,0.520,0.789,0.490,0.999,0.710,0.314,0.563,0.526,���쐼,6.0,��
2024/01/17,20:50,0.519,0.787,0.489,0.999,0.709,0.314,0.563,0.526,���쐼,6.0,��
2024/01/17,21:00,0.519,0.787,0.489,0.998,0.710,0.315,0.563,0.527,���쐼,5.2,��
2024/01/17,21:10,0.520,0.785,0.490,0.999,0.711,0.314,0.564,0.527,�쐼,6.3,��
2024/01/17,21:20,0.518,0.786,0.490,1.001,0.710,0.315,0.562,0.527,�쐼,7.3,��
2024/01/17,21:30,0.518,0.788,0.491,0.999,0.710,0.315,0.562,0.526,�쐼,6.5,��
2024/01/17,21:40,0.521,0.787,0.492,1.001,0.710,0.315,0.564,0.526,��쐼,7.2,��
2024/01/17,21:50,0.519,0.786,0.491,0.999,0.708,0.317,0.565,0.527,��쐼,8.0,��
2024/01/17,22:00,0.519,0.788,0.491,1.000,0.711,0.315,0.562,0.528,��쐼,6.8,��
2024/01/17,22:10,0.521,0.789,0.492,0.999,0.709,0.315,0.565,0.526,��쐼,7.0,��
2024/01/17,22:20,0.520,0.787,0.490,1.001,0.710,0.315,0.564,0.528,�쐼,5.7,��
2024/01/17,22:30,0.520,0.789,0.492,0.999,0.710,0.316,0.565,0.526,��쐼,4.3,��
2024/01/17,22:40,0.520,0.786,0.490,1.000,0.711,0.315,0.564,0.526,��쐼,2.3,��
2024/01/17,22:50,0.519,0.787,0.492,0.999,0.709,0.315,0.565,0.527,�쐼,1.4,��
2024/01/17,23:00,0.519,0.786,0.489,0.997,0.710,0.315,0.564,0.527,-,CALM,��
2024/01/17,23:10,0.520,0.788,0.491,0.998,0.710,0.316,0.565,0.527,�k�k��,0.9,��
2024/01/17,23:20,0.521,0.786,0.490,1.001,0.710,0.315,0.562,0.527,�k�k��,2.0,��
2024/01/17,23:30,0.520,0.785,0.493,0.997,0.710,0.315,0.564,0.526,�k�k��,2.2,��
2024/01/17,23:40,0.519,0.787,0.492,1.001,0.710,0.316,0.565,0.528,�k��,0.9,��
2024/01/17,23:50,0.520,0.788,0.492,0.998,0.712,0.316,0.564,0.525,��,2.2,��
